This is the latest recevied weather packets stored in our database for station/object KD5UMO-1. If no packets are shown the sender has not sent any weather packets the latest 10 day(s).
| Time | Temp. | Humidity | Pressure | Rain* | Wind** | Luminosity | Snow |
|---|---|---|---|---|---|---|---|
| 1777993020 | 24.44° C | 77% | 1005.1 hPa | 0 mm | - | 303 W/m² | - |
| 1777992720 | 25° C | 76% | 1004.9 hPa | 0 mm | - | 363 W/m² | - |
| 1777992416 | 24.44° C | 78% | 1005 hPa | 0 mm | - | 431 W/m² | - |
| 1777992114 | 24.44° C | 78% | 1005 hPa | 0 mm | - | 438 W/m² | - |
| 1777991811 | 24.44° C | 77% | 1005 hPa | 0 mm | - | 325 W/m² | - |
| 1777991508 | 24.44° C | 78% | 1004.8 hPa | 0 mm | - | 256 W/m² | - |
| 1777991205 | 23.89° C | 78% | 1005 hPa | 0 mm | - | 241 W/m² | - |
| 1777990903 | 23.89° C | 79% | 1004.9 hPa | 0 mm | - | 246 W/m² | - |
| 1777990600 | 23.89° C | 80% | 1005.2 hPa | 0 mm | - | 201 W/m² | - |
| 1777989993 | 23.33° C | 81% | 1005 hPa | 0 mm | - | 222 W/m² | - |
| 1777989690 | 23.33° C | 81% | 1005 hPa | 0 mm | - | 194 W/m² | - |
| 1777989386 | 23.33° C | 81% | 1005 hPa | 0 mm | - | 174 W/m² | - |
| 1777989083 | 23.33° C | 81% | 1004.8 hPa | 0 mm | - | 176 W/m² | - |
| 1777988779 | 22.78° C | 82% | 1004.9 hPa | 0 mm | - | 150 W/m² | - |
| 1777988477 | 22.78° C | 82% | 1004.8 hPa | 0 mm | - | 122 W/m² | - |
| 1777988174 | 22.78° C | 82% | 1004.6 hPa | 0 mm | - | 126 W/m² | - |
| 1777987869 | 22.78° C | 82% | 1004.7 hPa | 0 mm | - | 112 W/m² | - |
| 1777987566 | 22.78° C | 82% | 1005 hPa | 0 mm | - | 111 W/m² | - |
| 1777987264 | 22.78° C | 82% | 1005.1 hPa | 0 mm | - | 118 W/m² | - |
| 1777986960 | 22.78° C | 82% | 1005 hPa | 0 mm | - | 127 W/m² | - |
| 1777986658 | 22.78° C | 83% | 1005.2 hPa | 0 mm | - | 69 W/m² | - |
| 1777986356 | 22.78° C | 83% | 1005 hPa | 0 mm | - | 96 W/m² | - |
| 1777986054 | 22.22° C | 83% | 1004.7 hPa | 0 mm | - | 72 W/m² | - |
| 1777985750 | 22.22° C | 83% | 1004.6 hPa | 0 mm | - | 66 W/m² | - |
| 1777985447 | 22.22° C | 83% | 1004.7 hPa | 0 mm | - | 68 W/m² | - |
* Rain latest hour (hover to see other rain measurements)
** Current wind speed in m/s (hover to see current wind gust speed)